Mars Hill, North Carolina, United States (28754)
Lat: 35.83N, Lon: 82.55W
Wx Zone: NCZ048
Local Info
Past Weather Observations for Today

NOTE: This archive is for the closest National Weather Service station to Mars Hill. Information may differ from the station used for current weather conditions.

Click here for Long-term Archive

Time Weather Temperature Dewpoint Humidity Pressure Winds Precip Visibility
19:54
Overcast
43°F / 6°C 25°F / -4°C 49% 30.09 in
(1019 mb)
NNW 12.7 mph
(NNW 20 kph)
- 10SM
18:54
Overcast
43°F / 6°C 27°F / -3°C 53% 30.09 in
(1019 mb)
NNW 19.6 mph
(NNW 32 kph)
- 10SM
17:54
Overcast
46°F / 8°C 23°F / -5°C 40% 30.06 in
(1018 mb)
NNW 19.6 mph
(NNW 32 kph)
- 10SM
16:54
Overcast
50°F / 10°C 12°F / -11°C 22% 30.06 in
(1018 mb)
NNW 11.5 mph
(NNW 19 kph)
- 10SM
15:54
Mostly Cloudy
54°F / 12°C 18°F / -8°C 24% 30.06 in
(1018 mb)
NNW 8.1 mph
(NNW 13 kph)
- 10SM
14:54
Overcast
54°F / 12°C 25°F / -4°C 33% 30.04 in
(1017 mb)
NNW 5.8 mph
(NNW 9 kph)
- 10SM
13:54
Overcast
52°F / 11°C 27°F / -3°C 38% 30.06 in
(1018 mb)
Calm - 10SM
12:54
Clear
48°F / 9°C 19°F / -7°C 32% 30.09 in
(1019 mb)
Calm - 10SM
11:54
Clear
46°F / 8°C 19°F / -7°C 34% 30.12 in
(1020 mb)
NNW 4.6 mph
(NNW 7 kph)
- 10SM
10:54
Clear
45°F / 7°C 21°F / -6°C 39% 30.15 in
(1021 mb)
Variable 4.6 mph
(Variable 7 kph)
- 10SM
09:54
Partly Cloudy
39°F / 4°C 28°F / -2°C 65% 30.15 in
(1021 mb)
NNW 5.8 mph
(NNW 9 kph)
- 10SM
08:54
Overcast
37°F / 3°C 28°F / -2°C 70% 30.18 in
(1022 mb)
NNW 4.6 mph
(NNW 7 kph)
0.00 in
(0.00 mm)
10SM
07:54
Overcast
36°F / 2°C 28°F / -2°C 75% 30.15 in
(1021 mb)
N 13.8 mph
(N 22 kph)
- 10SM
06:54
Clear
36°F / 2°C 28°F / -2°C 75% 30.15 in
(1021 mb)
NNW 20.7 mph
(NNW 33 kph)
- 10SM
05:54
Clear
34°F / 1°C 28°F / -2°C 81% 30.12 in
(1020 mb)
NNW 17.3 mph
(NNW 28 kph)
- 10SM
04:54
Clear
34°F / 1°C 28°F / -2°C 81% 30.12 in
(1020 mb)
N 16.1 mph
(N 26 kph)
- 10SM
03:54
Clear
36°F / 2°C 28°F / -2°C 75% 30.12 in
(1020 mb)
NNW 17.3 mph
(NNW 28 kph)
- 10SM
02:54
Clear
36°F / 2°C 30°F / -1°C 81% 30.12 in
(1020 mb)
N 13.8 mph
(N 22 kph)
- 10SM
01:54
Clear
36°F / 2°C 30°F / -1°C 81% 30.12 in
(1020 mb)
N 13.8 mph
(N 22 kph)
- 10SM
00:54
Clear
36°F / 2°C 30°F / -1°C 81% 30.12 in
(1020 mb)
NNW 12.7 mph
(NNW 20 kph)
- 10SM
Time Weather Temperature Dewpoint Humidity Pressure Winds Precip Visibility


Weather for websites

WeatherForYou.com, LLC is not responsible for any damages or problems caused by this service. Current weather conditions are obtained from the closest station including government and personal stations which may have varying degrees of accuracy. Weather forecasts are derived from the NOAA NDFD. Like all things, this site belongs to Jesus Christ... He just trusts me to maintain it. If you have any questions or comments email webmaster@weatherforyou.com

Copyright © 2014, WeatherForYou.com LLC. All rights reserved.